Weather reports worldwide

Advertisment
Sennybridge, United Kingdom (3507): temperature & dewpoint: 16.05.2018 16:00:00 - 22.05.2018 16:00:00 (BST)Sennybridge, United Kingdom (3507): temperature -20cm & temperature -100cm: 16.05.2018 16:00:00 - 22.05.2018 16:00:00 (BST)Sennybridge, United Kingdom (3507): wind speed: 16.05.2018 16:00:00 - 22.05.2018 16:00:00 (BST)Sennybridge, United Kingdom (3507): wind direction: 16.05.2018 16:00:00 - 22.05.2018 16:00:00 (BST)Sennybridge, United Kingdom (3507): reduced air pressure: 16.05.2018 16:00:00 - 22.05.2018 16:00:00 (BST)Sennybridge, United Kingdom (3507): visibility: 16.05.2018 16:00:00 - 22.05.2018 16:00:00 (BST)Sennybridge, United Kingdom (3507): precipitation: 16.05.2018 16:00:00 - 22.05.2018 16:00:00 (BST)
Date & Time tt [°C] td [°C] tt -20cm [°C] tt -100cm [°C] ff [km/h] ff [kn] dd ppp [hPa] vv [km] rr [mm]
22.05.2018 16:00:00 19,2 9,3 - - 9 5 NE 1018,7 40 0,0
22.05.2018 15:00:00 19,0 9,6 - - 15 8 NNE 1018,7 40 0,0
22.05.2018 14:00:00 19,3 10,9 - - 11 6 NNE 1018,6 45 0,0
22.05.2018 13:00:00 17,4 7,5 - - 13 7 NE 1018,9 50 0,0
22.05.2018 12:00:00 17,2 7,9 - - 11 6 NNE 1018,7 50 0,0
22.05.2018 11:00:00 16,2 9,0 - - 11 6 NE 1019,0 40 0,0
22.05.2018 10:00:00 14,7 8,8 14,7 11,0 13 7 NNE 1019,0 30 0,0
22.05.2018 09:00:00 13,0 8,6 - - 13 7 NNE 1018,9 30 0,0
22.05.2018 08:00:00 12,6 8,5 - - 9 5 NE 1018,7 40 0,0
22.05.2018 07:00:00 10,3 8,2 - - 4 2 NNW 1018,6 45 0,0
22.05.2018 06:00:00 8,7 6,8 - - 0 0 N 1018,2 35 0,0
22.05.2018 05:00:00 9,7 7,1 - - 2 1 E 1018,1 45 0,0
22.05.2018 04:00:00 9,5 7,2 - - 4 2 ENE 1018,1 45 0,0
22.05.2018 03:00:00 9,2 6,8 - - 2 1 SE 1018,4 45 0,0
22.05.2018 02:00:00 11,0 6,7 - - 2 1 NNW 1018,2 45 0,0
22.05.2018 01:00:00 12,3 6,0 - - 4 2 N 1017,9 50 0,0
22.05.2018 00:00:00 12,6 5,5 - - 4 2 N 1018,0 50 0,0
21.05.2018 23:00:00 13,7 5,5 - - 11 6 NE 1017,6 45 0,0
21.05.2018 22:00:00 14,2 8,4 - - 9 5 NNE 1017,3 40 0,0
21.05.2018 21:00:00 14,5 8,6 - - 4 2 NNE 1016,7 50 0,0
21.05.2018 20:00:00 17,1 9,4 - - 8 4 NNE 1016,1 50 0,0
21.05.2018 19:00:00 19,8 9,5 - - 8 4 NNW 1015,5 50 0,0
21.05.2018 18:00:00 20,1 6,8 - - 9 5 NNE 1015,2 50 0,0
21.05.2018 17:00:00 20,2 9,1 - - 5 3 NNW 1015,3 50 0,0
21.05.2018 16:00:00 19,2 7,3 - - 9 5 NNE 1015,8 50 0,0
21.05.2018 15:00:00 19,8 7,9 - - 8 4 NNE 1016,0 50 0,0
21.05.2018 14:00:00 19,2 8,7 - - 8 4 ENE 1016,2 50 0,0
21.05.2018 13:00:00 18,6 10,3 - - 8 4 NNE 1016,6 40 0,0
21.05.2018 12:00:00 16,9 9,4 - - 11 6 NNE 1017,1 35 0,0
21.05.2018 11:00:00 16,9 10,9 - - 4 2 NNW 1017,4 35 0,0
21.05.2018 10:00:00 14,0 9,5 14,2 11,0 5 3 N 1017,9 40 0,0
21.05.2018 09:00:00 11,9 8,0 - - 8 4 NNE 1018,2 45 0,0
21.05.2018 08:00:00 10,6 8,0 - - 5 3 N 1018,4 45 0,0
21.05.2018 07:00:00 7,5 7,3 - - 4 2 N 1018,9 30 0,0
21.05.2018 06:00:00 3,8 3,6 - - 4 2 N 1019,3 30 0,0
21.05.2018 05:00:00 3,5 3,1 - - 2 1 N 1019,2 19 0,0
21.05.2018 04:00:00 4,0 3,6 - - 4 2 SE 1019,6 19 0,0
21.05.2018 03:00:00 3,6 3,0 - - 2 1 NNE 1019,9 15 0,0
21.05.2018 02:00:00 4,5 3,9 - - 0 0 N 1020,1 22 0,0
21.05.2018 01:00:00 5,6 4,9 - - 2 1 NNW 1020,3 29 0,0
21.05.2018 00:00:00 6,9 6,1 - - 4 2 ESE 1020,3 26 0,0
20.05.2018 23:00:00 7,8 6,1 - - 4 2 ESE 1020,3 30 0,0
20.05.2018 22:00:00 9,9 7,5 - - 8 4 S 1020,2 35 0,0
20.05.2018 21:00:00 12,1 6,7 - - 2 1 S 1019,6 50 0,0
20.05.2018 20:00:00 16,2 7,6 - - 4 2 W 1018,9 50 0,0
20.05.2018 19:00:00 17,4 8,5 - - 11 6 WSW 1018,8 50 0,0
20.05.2018 18:00:00 19,5 8,8 - - 5 3 W 1018,7 50 0,0
20.05.2018 17:00:00 20,1 8,3 - - 9 5 W 1018,8 50 0,0
20.05.2018 16:00:00 20,8 9,1 - - 5 3 SSW 1019,2 50 0,0
20.05.2018 15:00:00 19,8 8,3 - - 16 9 SW 1019,9 50 0,0
20.05.2018 14:00:00 19,4 7,8 - - 13 7 SSW 1020,4 50 0,0
20.05.2018 13:00:00 18,0 8,0 - - 9 5 WSW 1020,9 45 0,0
20.05.2018 12:00:00 17,0 8,2 - - 13 7 WSW 1021,3 50 0,0
20.05.2018 11:00:00 16,6 8,5 - - 15 8 S 1021,6 40 0,0
20.05.2018 10:00:00 15,8 8,0 13,9 10,9 13 7 S 1021,9 40 0,0
20.05.2018 09:00:00 13,2 7,1 - - 5 3 N 1022,3 50 0,0
20.05.2018 08:00:00 10,2 6,2 - - 4 2 N 1022,7 50 0,0
20.05.2018 07:00:00 5,3 3,9 - - 2 1 ESE 1023,3 45 0,0
20.05.2018 06:00:00 4,2 3,3 - - 4 2 N 1023,4 50 0,0
20.05.2018 05:00:00 2,1 0,5 - - 4 2 N 1023,5 50 0,0
20.05.2018 04:00:00 5,0 2,5 - - 5 3 SSE 1023,2 45 0,0
20.05.2018 03:00:00 5,2 1,6 - - 4 2 S 1023,5 50 0,0
20.05.2018 02:00:00 7,4 2,0 - - 9 5 SSE 1023,4 50 0,0
20.05.2018 01:00:00 6,7 2,4 - - 8 4 S 1023,5 50 0,0
20.05.2018 00:00:00 7,2 3,5 - - 8 4 S 1023,6 50 0,0
19.05.2018 23:00:00 9,3 5,2 - - 5 3 S 1023,4 50 0,0
19.05.2018 22:00:00 9,3 5,7 - - 8 4 S 1023,3 50 0,0
19.05.2018 21:00:00 11,1 5,4 - - 2 1 S 1022,7 50 0,0
19.05.2018 20:00:00 15,3 7,4 - - 8 4 W 1022,1 50 0,0
19.05.2018 19:00:00 17,0 7,6 - - 13 7 WSW 1021,8 50 0,0
19.05.2018 18:00:00 18,0 8,7 - - 16 9 WSW 1021,8 50 0,0
19.05.2018 17:00:00 18,9 9,3 - - 8 4 W 1021,7 50 0,0
19.05.2018 16:00:00 18,0 8,0 - - 11 6 SW 1022,2 50 0,0
19.05.2018 15:00:00 17,8 6,7 - - 5 3 S 1022,4 50 0,0
19.05.2018 14:00:00 19,1 8,4 - - 8 4 SSW 1022,5 50 0,0
19.05.2018 13:00:00 17,8 6,1 - - 8 4 WSW 1023,0 50 0,0
19.05.2018 12:00:00 17,5 8,3 - - 4 2 WSW 1023,6 50 0,0
19.05.2018 11:00:00 16,3 5,6 - - 5 3 WSW 1023,8 50 0,0
19.05.2018 10:00:00 16,0 7,4 13,5 10,7 4 2 WNW 1024,0 50 0,0
19.05.2018 09:00:00 12,6 5,6 - - 4 2 NE 1024,6 50 0,0
19.05.2018 08:00:00 9,9 4,3 - - 4 2 NNE 1024,9 50 0,0
19.05.2018 07:00:00 6,3 4,4 - - 2 1 N 1025,1 50 0,0
19.05.2018 06:00:00 1,3 0,8 - - 0 0 N 1025,8 29 0,0
19.05.2018 05:00:00 0,4 -0,5 - - 0 0 N 1025,8 45 0,0
19.05.2018 04:00:00 1,1 -0,1 - - 0 0 N 1025,7 50 0,0
19.05.2018 03:00:00 1,7 -0,2 - - 2 1 SSW 1025,9 50 0,0
19.05.2018 02:00:00 2,5 0,0 - - 4 2 SE 1026,0 50 0,0
19.05.2018 01:00:00 3,0 0,8 - - 2 1 SSE 1026,0 50 0,0
19.05.2018 00:00:00 3,8 0,4 - - 0 0 N 1026,1 50 0,0
18.05.2018 23:00:00 6,1 1,4 - - 0 0 N 1025,7 50 0,0
18.05.2018 22:00:00 7,2 2,8 - - 2 1 ENE 1025,5 50 0,0
18.05.2018 21:00:00 10,7 4,4 - - 2 1 E 1024,7 50 0,0
18.05.2018 20:00:00 13,8 4,2 - - 4 2 NNW 1024,1 50 0,0
18.05.2018 19:00:00 17,0 4,3 - - 5 3 NNW 1023,7 50 0,0
18.05.2018 18:00:00 17,4 4,6 - - 5 3 NW 1023,7 50 0,0
18.05.2018 17:00:00 16,3 5,5 - - 4 2 NNW 1023,9 50 0,0
18.05.2018 16:00:00 16,2 6,9 - - 5 3 W 1024,2 50 0,0
18.05.2018 15:00:00 15,5 6,7 - - 13 7 W 1024,4 50 0,0
18.05.2018 14:00:00 15,3 6,6 - - 15 8 SW 1024,7 50 0,0
18.05.2018 13:00:00 15,6 6,6 - - 11 6 WSW 1024,9 50 0,0
18.05.2018 12:00:00 15,1 7,0 - - 9 5 W 1025,3 50 0,0
18.05.2018 11:00:00 14,2 6,3 - - 11 6 WSW 1025,7 50 0,0
18.05.2018 10:00:00 13,2 6,4 13,4 10,7 4 2 S 1025,9 50 0,0
18.05.2018 09:00:00 10,6 5,8 - - 4 2 N 1026,3 40 0,0
18.05.2018 08:00:00 7,9 5,4 - - 4 2 NNE 1026,9 30 0,0
18.05.2018 07:00:00 5,7 4,6 - - 2 1 N 1027,2 29 0,0
18.05.2018 06:00:00 2,1 0,9 - - 4 2 N 1027,6 22 0,0
18.05.2018 05:00:00 3,9 2,7 - - 4 2 NNW 1027,2 30 0,0
18.05.2018 04:00:00 3,5 2,0 - - 2 1 N 1027,4 30 0,0
18.05.2018 03:00:00 2,8 1,7 - - 2 1 N 1027,7 22 0,0
18.05.2018 02:00:00 2,3 1,3 - - 2 1 NNE 1027,9 30 0,0
18.05.2018 01:00:00 2,2 0,0 - - 2 1 NNW 1028,1 30 0,0
18.05.2018 00:00:00 7,1 2,4 - - 4 2 N 1027,4 35 0,0
17.05.2018 23:00:00 7,9 2,0 - - 2 1 W 1027,4 45 0,0
17.05.2018 22:00:00 9,3 1,9 - - 15 8 ESE 1026,9 40 0,0
17.05.2018 21:00:00 10,0 2,1 - - 13 7 ESE 1026,7 40 0,0
17.05.2018 20:00:00 12,5 1,7 - - 9 5 E 1026,4 50 0,0
17.05.2018 19:00:00 13,9 -0,4 - - 9 5 E 1026,3 50 0,0
17.05.2018 18:00:00 14,5 1,4 - - 11 6 ESE 1026,3 50 0,0
17.05.2018 17:00:00 14,6 1,0 - - 9 5 SSE 1026,4 50 0,0
17.05.2018 16:00:00 14,1 -2,3 - - 8 4 SE 1027,0 50 0,0
17.05.2018 15:00:00 13,5 0,8 - - 9 5 E 1027,4 50 0,0
17.05.2018 14:00:00 13,0 0,3 - - 9 5 ESE 1027,8 50 0,0
17.05.2018 13:00:00 12,8 1,3 - - 11 6 E 1028,1 50 0,0
17.05.2018 12:00:00 11,5 0,3 - - 16 9 E 1028,7 50 0,0
17.05.2018 11:00:00 11,3 2,6 - - 15 8 E 1028,8 50 0,0
17.05.2018 10:00:00 8,9 1,7 13,4 10,7 15 8 ENE 1029,1 50 0,0
17.05.2018 09:00:00 7,5 3,6 - - 15 8 E 1029,5 35 0,0
17.05.2018 08:00:00 5,7 3,6 - - 15 8 ENE 1029,9 30 0,0
17.05.2018 07:00:00 4,1 3,2 - - 11 6 NNE 1029,9 18 0,0
17.05.2018 06:00:00 3,1 2,2 - - 9 5 NNE 1029,9 18 0,0
17.05.2018 05:00:00 3,0 1,8 - - 5 3 NNE 1029,8 20 0,0
17.05.2018 04:00:00 4,6 3,2 - - 11 6 NE 1029,7 23 0,0
17.05.2018 03:00:00 4,8 3,1 - - 8 4 NNE 1029,9 24 0,0
17.05.2018 02:00:00 5,7 3,8 - - 9 5 NE 1030,2 26 0,0
17.05.2018 01:00:00 6,8 4,4 - - 8 4 NE 1030,2 30 0,0
17.05.2018 00:00:00 7,6 4,3 - - 13 7 E 1030,2 30 0,0
16.05.2018 23:00:00 8,0 4,2 - - 13 7 E 1029,6 45 0,0
16.05.2018 22:00:00 9,4 5,6 - - 13 7 E 1029,0 45 0,0
16.05.2018 21:00:00 10,2 6,1 - - 11 6 E 1028,5 50 0,0
16.05.2018 20:00:00 11,0 6,3 - - 9 5 NE 1028,4 50 0,0
16.05.2018 19:00:00 11,2 8,0 - - 11 6 NE 1028,4 40 0,0
16.05.2018 18:00:00 11,8 8,1 - - 13 7 ENE 1028,1 40 0,0
16.05.2018 17:00:00 11,6 8,8 - - 11 6 NE 1028,3 35 0,0
16.05.2018 16:00:00 11,4 8,5 - - 13 7 NE 1028,4 45 0,2

tt = temperature
td = dewpoint
tt -20cm = temperature -20cm
tt -100cm = temperature -100cm
ff = wind speed
dd = wind direction
ppp = reduced air pressure
vv = visibility
rr = precipitation

Next stations